[[{"header":{"parameterUnit":"m.s-1","parameterCategory":2,"la1":30.2992,"la2":30.254,"lo1":-89.0895,"lo2":-89.0443,"dy":0.0025,"dx":0.0025,"nx":19,"ny":19,"refTime":"2026-05-16T03:00:00:Z","depth":"0","parameterNumber":2,"parameterNumberName":"U-component_of_CURRENTS"},"data":[0,0,0,0.37,0.3702,0.3795,0.3795,0.3936,0.3937,0,0,0,0,0,0,0,0,0,0,0,0.3655,0.3656,0.37,0.3702,0.3795,0.3795,0.3935,0.3937,0,0,0,0,0,0,0,0,0,0,0,0.3655,0.3656,0.3656,0.3703,0.3795,0.3795,0.3935,0.3859,0,0,0,0,0,0,0,0,0,0,0.3766,0.3729,0.3656,0.3656,0.3703,0.3794,0.3795,0.3855,0.3864,0.3901,0,0.391,0,0.3935,0.3947,0.3948,0,0,0,0.3699,0.3722,0.3744,0.3656,0.3704,0.3794,0.3752,0.386,0.387,0.3913,0.3912,0.3918,0.3938,0.3948,0.3949,0.4171,0.4172,0,0,0.3694,0.368,0.3737,0.375,0.3722,0.3749,0.3755,0.3865,0.3876,0.3912,0.3921,0.394,0.3949,0.395,0.4169,0.4171,0,0,0,0.3681,0.3676,0.3694,0.3743,0.3764,0.3752,0.3759,0.3871,0.3876,0.3923,0.3942,0.395,0.3952,0.4168,0.417,0.424,0,0,0,0.3678,0.3669,0.3692,0.3685,0.3761,0.3818,0.3762,0.3867,0.3881,0.3941,0.395,0.3953,0.4167,0.4169,0.4235,0.4334,0,0,0,0.3652,0.3667,0.3674,0.3684,0.3727,0.3817,0.3828,0.3871,0.3894,0.3948,0.3954,0.4166,0.4169,0.4231,0.4324,0.4452,0,0,0,0.3639,0.3651,0.3674,0.3714,0.3726,0.3831,0.3828,0.391,0.3961,0.3951,0.4167,0.417,0.4229,0.4319,0.4446,0.4473,0.4507,0,0,0.3646,0.3652,0.368,0.3703,0.3798,0.3819,0.3949,0.4004,0.4023,0.4128,0.4133,0.4237,0.4324,0.4451,0.4649,0.4678,0,0,0,0.3679,0.3691,0.3729,0.379,0.3871,0.3988,0.4031,0.4089,0.4197,0.4068,0.428,0.4335,0.4411,0.4415,0.4438,0.426,0.4184,0.4184,0.4183,0.3648,0.3708,0.3775,0.3863,0.3952,0.4108,0.4231,0.4324,0.4279,0.4355,0.442,0.4614,0.4617,0.4635,0.445,0.4417,0.4418,0.4418,0.4418,0.368,0.3722,0.3821,0.3902,0.4048,0.4173,0.4418,0.446,0.4663,0.4562,0.463,0.4525,0.4665,0.4459,0.4423,0.4422,0.4422,0.4421,0.4421,0.3662,0.3691,0.3739,0.389,0.4059,0.4249,0.4514,0.4671,0.4772,0.4873,0.4869,0.4867,0.4666,0.4872,0.4873,0.4874,0.4875,0.4875,0.4876,0.3623,0.3674,0.377,0.3902,0.4022,0.4245,0.4597,0.4788,0.4998,0.5027,0.5026,0.4732,0.4755,0.4714,0.4891,0.4889,0.4887,0.4885,0.4884,0.3663,0.3663,0.3811,0.3916,0.4148,0.426,0.4589,0.4931,0.5158,0.5249,0.5005,0.5119,0.5123,0.5102,0.5072,0.5333,0.5333,0.5333,0.5333,0.3697,0.3703,0.3887,0.4027,0.4185,0.429,0.4478,0.4753,0.5011,0.5042,0.5088,0.4915,0.4905,0.4884,0.4868,0.4828,0.5022,0.5021,0.502,0.3808,0.3837,0.396,0.4023,0.4174,0.425,0.4264,0.4341,0.4721,0.4985,0.4842,0.4855,0.457,0.4568,0.45,0.4492,0.4413,0,0]},{"header":{"parameterUnit":"m.s-1","parameterCategory":2,"la1":30.2992,"la2":30.254,"lo1":-89.0895,"lo2":-89.0443,"dy":0.0025,"dx":0.0025,"nx":19,"ny":19,"refTime":"2026-05-16T03:00:00:Z","depth":"0","parameterNumber":3,"parameterNumberName":"V-component_of_CURRENTS"},"data":[0,0,0,0.019,0.0189,0.0153,0.0153,0.0104,0.0103,0,0,0,0,0,0,0,0,0,0,0,0.0203,0.0203,0.019,0.0189,0.0153,0.0153,0.0104,0.0103,0,0,0,0,0,0,0,0,0,0,0,0.0203,0.0203,0.0202,0.0189,0.0153,0.0153,0.0104,0.013,0,0,0,0,0,0,0,0,0,0,0.0165,0.0186,0.0203,0.0202,0.0189,0.0153,0.0153,0.0131,0.0129,0.0121,0,0.0119,0,0.0112,0.01,0.01,0,0,0,0.0183,0.0189,0.0173,0.0202,0.0188,0.0153,0.0168,0.013,0.0127,0.0117,0.0119,0.0117,0.0111,0.01,0.01,0.0166,0.0167,0,0,0.0185,0.0199,0.0176,0.0172,0.0184,0.0169,0.0167,0.0128,0.013,0.0118,0.0115,0.0111,0.01,0.0099,0.0165,0.0166,0,0,0,0.0195,0.0201,0.0187,0.0174,0.0169,0.0168,0.0165,0.0132,0.0125,0.0115,0.011,0.01,0.0099,0.0163,0.0165,0.0347,0,0,0,0.0196,0.0207,0.0188,0.0197,0.017,0.0152,0.017,0.0128,0.0123,0.011,0.01,0.0099,0.0162,0.0164,0.034,0.0518,0,0,0,0.0203,0.0208,0.0204,0.0197,0.0184,0.0152,0.0144,0.0127,0.0121,0.01,0.0098,0.0162,0.0164,0.0333,0.0503,0.0621,0,0,0,0.0218,0.0254,0.0205,0.0251,0.0184,0.0232,0.0144,0.0156,0.0149,0.0099,0.0162,0.0165,0.0331,0.0494,0.0612,0.0749,0.0804,0,0,0.028,0.0261,0.0293,0.0249,0.0321,0.0236,0.0335,0.0268,0.0184,0.0171,0.0172,0.0342,0.0502,0.0619,0.0891,0.0942,0,0,0,0.0325,0.0353,0.0364,0.039,0.0391,0.045,0.037,0.036,0.0346,0.019,0.0341,0.0439,0.0505,0.0568,0.0608,0.0326,0.0176,0.0176,0.0176,0.0432,0.044,0.0521,0.054,0.0581,0.0591,0.0645,0.0617,0.0474,0.05,0.0582,0.0805,0.0871,0.0903,0.0609,0.0522,0.0523,0.0524,0.0524,0.0576,0.0645,0.0669,0.0754,0.0799,0.0888,0.0934,0.0875,0.0946,0.0777,0.0828,0.0753,0.0959,0.0628,0.0536,0.0534,0.0532,0.0531,0.053,0.067,0.0714,0.0749,0.091,0.1065,0.1125,0.1358,0.1311,0.1183,0.1247,0.1247,0.1244,0.0961,0.1224,0.1225,0.1227,0.1228,0.1229,0.1229,0.0767,0.0807,0.0958,0.1107,0.1258,0.1477,0.1634,0.1708,0.1685,0.1546,0.1543,0.1028,0.1019,0.0999,0.125,0.1246,0.1244,0.1242,0.124,0.0949,0.0951,0.1188,0.1339,0.1678,0.1953,0.2058,0.221,0.2208,0.2205,0.1525,0.1673,0.1646,0.1611,0.1605,0.1998,0.1998,0.1998,0.1998,0.1086,0.1098,0.1419,0.1687,0.2004,0.2192,0.2563,0.2629,0.2223,0.192,0.1672,0.1463,0.1444,0.1387,0.1357,0.1337,0.1653,0.1652,0.1651,0.1271,0.1324,0.1582,0.1788,0.2144,0.2437,0.2778,0.2921,0.22,0.1595,0.1257,0.1272,0.0906,0.0901,0.0751,0.0732,0.0677,0,0]}],[{"header":{"parameterUnit":"m.s-1","parameterCategory":2,"la1":30.2992,"la2":30.254,"lo1":-89.0895,"lo2":-89.0443,"dy":0.0025,"dx":0.0025,"nx":19,"ny":19,"refTime":"2026-05-16T03:00:00:Z","depth":"2","parameterNumber":2,"parameterNumberName":"U-component_of_CURRENTS"},"data":[0,0,0,0.3449,0.3453,0.3583,0.3583,0.3727,0.3728,0,0,0,0,0,0,0,0,0,0,0,0.3403,0.3404,0.3449,0.3453,0.3583,0.3583,0.3727,0.3728,0,0,0,0,0,0,0,0,0,0,0,0.3402,0.3404,0.3405,0.3454,0.3583,0.3583,0.3726,0.363,0,0,0,0,0,0,0,0,0,0,0.3505,0.3464,0.3403,0.3405,0.3455,0.3583,0.3583,0.3626,0.3636,0.3667,0,0.3702,0,0.3728,0.3739,0.3739,0,0,0,0.3438,0.3455,0.3502,0.3406,0.3456,0.3583,0.352,0.3632,0.3644,0.368,0.3704,0.371,0.373,0.374,0.3741,0.3939,0.394,0,0,0.3431,0.3413,0.3494,0.351,0.351,0.3516,0.3524,0.3639,0.3653,0.3705,0.3713,0.3732,0.3741,0.3742,0.3938,0.3939,0,0,0,0.342,0.3408,0.3451,0.3503,0.3534,0.352,0.353,0.3647,0.3666,0.3715,0.3734,0.3742,0.3744,0.3937,0.3939,0.4029,0,0,0,0.3415,0.3403,0.3448,0.3437,0.3533,0.3595,0.3535,0.3658,0.3672,0.3733,0.3742,0.3745,0.3936,0.3938,0.4024,0.4115,0,0,0,0.3393,0.34,0.3424,0.3436,0.3501,0.3594,0.3618,0.3661,0.3684,0.374,0.3746,0.3935,0.3937,0.402,0.4106,0.4228,0,0,0,0.3356,0.3394,0.3424,0.3474,0.35,0.3605,0.3617,0.3693,0.3742,0.3743,0.3936,0.3938,0.4019,0.41,0.4222,0.4078,0.4097,0,0,0.3377,0.3396,0.3425,0.3456,0.3559,0.3585,0.3709,0.3773,0.379,0.3891,0.3896,0.4026,0.4105,0.4227,0.4215,0.4229,0,0,0,0.3414,0.3441,0.3478,0.3547,0.3625,0.3739,0.3791,0.3856,0.3968,0.3836,0.4049,0.4098,0.4171,0.4071,0.4083,0.395,0.3949,0.3949,0.3949,0.3397,0.3453,0.3524,0.3616,0.3697,0.3848,0.3964,0.4064,0.4038,0.4116,0.4186,0.4367,0.4259,0.4267,0.4175,0.4176,0.4176,0.4176,0.4177,0.3471,0.3498,0.3588,0.368,0.3798,0.392,0.4154,0.4208,0.4409,0.4325,0.4389,0.4189,0.4285,0.4184,0.4183,0.4182,0.4181,0.418,0.418,0.346,0.3474,0.3537,0.3681,0.3821,0.4004,0.4256,0.4437,0.453,0.4616,0.4505,0.45,0.4451,0.4632,0.4633,0.4634,0.4634,0.4635,0.4636,0.3407,0.3463,0.3555,0.369,0.3779,0.4017,0.4351,0.4517,0.4658,0.4648,0.4645,0.4523,0.4508,0.448,0.465,0.4648,0.4646,0.4644,0.4643,0.3415,0.339,0.3535,0.3621,0.3863,0.3931,0.4261,0.4492,0.4693,0.471,0.4666,0.4661,0.4636,0.4622,0.4597,0.479,0.479,0.479,0.479,0.3365,0.3387,0.3519,0.366,0.3852,0.3918,0.3906,0.3973,0.426,0.4311,0.433,0.4122,0.4129,0.4063,0.4062,0.402,0.4062,0.4061,0.4059,0.3402,0.3405,0.3491,0.3609,0.3819,0.3806,0.3549,0.3299,0.3583,0.4019,0.409,0.4763,0.4502,0.4495,0.4425,0.4411,0.4357,0,0]},{"header":{"parameterUnit":"m.s-1","parameterCategory":2,"la1":30.2992,"la2":30.254,"lo1":-89.0895,"lo2":-89.0443,"dy":0.0025,"dx":0.0025,"nx":19,"ny":19,"refTime":"2026-05-16T03:00:00:Z","depth":"2","parameterNumber":3,"parameterNumberName":"V-component_of_CURRENTS"},"data":[0,0,0,0.0123,0.0123,0.0092,0.0092,0.0048,0.0048,0,0,0,0,0,0,0,0,0,0,0,0.0133,0.0133,0.0123,0.0123,0.0092,0.0092,0.0048,0.0048,0,0,0,0,0,0,0,0,0,0,0,0.0133,0.0133,0.0133,0.0123,0.0092,0.0092,0.0048,0.0071,0,0,0,0,0,0,0,0,0,0,0.01,0.0118,0.0133,0.0133,0.0122,0.0092,0.0092,0.0072,0.0069,0.0063,0,0.0063,0,0.0058,0.0045,0.0045,0,0,0,0.0115,0.012,0.0108,0.0133,0.0122,0.0092,0.0104,0.007,0.0067,0.006,0.0062,0.0061,0.0057,0.0045,0.0045,0.01,0.0101,0,0,0.0117,0.0129,0.011,0.0107,0.012,0.0105,0.0103,0.0068,0.007,0.0062,0.006,0.0056,0.0045,0.0045,0.0099,0.01,0,0,0,0.0127,0.013,0.0119,0.0109,0.0105,0.0104,0.0102,0.0072,0.0067,0.0059,0.0056,0.0045,0.0044,0.0098,0.0099,0.0257,0,0,0,0.0127,0.0137,0.012,0.0127,0.0106,0.009,0.0106,0.007,0.0066,0.0056,0.0045,0.0044,0.0097,0.0099,0.025,0.0395,0,0,0,0.0134,0.0137,0.0135,0.0128,0.0118,0.0091,0.0084,0.0068,0.0064,0.0045,0.0044,0.0096,0.0098,0.0245,0.0382,0.0467,0,0,0,0.0145,0.0181,0.0135,0.018,0.0118,0.0162,0.0084,0.0096,0.0089,0.0044,0.0097,0.0099,0.0243,0.0374,0.0459,0.048,0.0517,0,0,0.0205,0.0188,0.0218,0.0177,0.0241,0.0165,0.0251,0.0193,0.0117,0.0104,0.0105,0.0253,0.0381,0.0465,0.0598,0.0632,0,0,0,0.0248,0.0273,0.0283,0.0306,0.0306,0.0349,0.0284,0.0271,0.0255,0.0123,0.025,0.0328,0.0375,0.0371,0.0398,0.0109,0.0109,0.0108,0.0108,0.0344,0.0351,0.0423,0.044,0.0469,0.0474,0.0509,0.0478,0.0367,0.0385,0.0451,0.0628,0.0624,0.0645,0.0403,0.0404,0.0404,0.0405,0.0405,0.0478,0.0531,0.055,0.0627,0.0654,0.0727,0.0751,0.0702,0.0745,0.0614,0.0648,0.0533,0.0684,0.0418,0.0415,0.0414,0.0412,0.0411,0.0411,0.0556,0.0588,0.0628,0.0756,0.0873,0.092,0.1105,0.1073,0.0946,0.0986,0.0924,0.092,0.0752,0.097,0.0971,0.0972,0.0973,0.0974,0.0975,0.062,0.0662,0.0774,0.0903,0.1013,0.1216,0.1338,0.1384,0.1313,0.1162,0.1159,0.0819,0.0801,0.0784,0.0991,0.0988,0.0986,0.0984,0.0983,0.0717,0.0721,0.09,0.1014,0.1311,0.1564,0.1663,0.1735,0.1695,0.1641,0.123,0.1218,0.118,0.1155,0.1146,0.1434,0.1434,0.1434,0.1434,0.0762,0.0785,0.1003,0.1213,0.1517,0.1726,0.1991,0.1927,0.1695,0.1477,0.1475,0.1325,0.1307,0.1264,0.1236,0.1223,0.1533,0.1533,0.1533,0.0823,0.0875,0.1037,0.1244,0.1584,0.1911,0.2127,0.2024,0.1636,0.1533,0.1452,0.1449,0.1213,0.119,0.11,0.1066,0.1035,0,0]}],[{"header":{"parameterUnit":"m.s-1","parameterCategory":2,"la1":30.2992,"la2":30.254,"lo1":-89.0895,"lo2":-89.0443,"dy":0.0025,"dx":0.0025,"nx":19,"ny":19,"refTime":"2026-05-16T03:00:00:Z","depth":"4","parameterNumber":2,"parameterNumberName":"U-component_of_CURRENTS"},"data":[0,0,0,0.2195,0.2201,0.2448,0.2449,0.2633,0.2634,0,0,0,0,0,0,0,0,0,0,0,0.2122,0.2124,0.2195,0.2201,0.2448,0.2449,0.2632,0.2634,0,0,0,0,0,0,0,0,0,0,0,0.2121,0.2124,0.2127,0.2202,0.2448,0.2449,0.2632,0.2479,0,0,0,0,0,0,0,0,0,0,0.2255,0.22,0.2123,0.2127,0.2203,0.2448,0.245,0.2473,0.2488,0.2482,0,0.2541,0,0.2584,0.2643,0.2643,0,0,0,0.2203,0.2188,0.2259,0.2127,0.2206,0.2447,0.2337,0.2483,0.25,0.2501,0.2544,0.2552,0.2587,0.2644,0.2644,0.2804,0.2804,0,0,0.2189,0.2157,0.2248,0.2271,0.2295,0.2329,0.2345,0.2494,0.2516,0.2545,0.2557,0.259,0.2645,0.2646,0.2803,0.2804,0,0,0,0.2149,0.2147,0.2218,0.2262,0.2314,0.2336,0.2354,0.251,0.2537,0.2559,0.2592,0.2645,0.2647,0.2802,0.2803,0.2897,0,0,0,0.214,0.2124,0.2212,0.2194,0.2313,0.2432,0.2366,0.2527,0.2545,0.2591,0.2645,0.2648,0.2801,0.2803,0.2892,0.2916,0,0,0,0.2106,0.212,0.2158,0.2192,0.2298,0.2431,0.2467,0.2533,0.2564,0.2643,0.2649,0.2801,0.2803,0.2889,0.291,0.2991,0,0,0,0.2051,0.2106,0.2158,0.2228,0.2296,0.2421,0.2467,0.2568,0.2637,0.2646,0.2802,0.2803,0.2887,0.2907,0.2987,0.2586,0,0,0,0.2076,0.2108,0.2146,0.2198,0.2288,0.2386,0.2511,0.2621,0.2659,0.2741,0.2746,0.2894,0.291,0.299,0.2691,0,0,0,0,0.2124,0.2156,0.2193,0.2268,0.2362,0.2489,0.2599,0.2674,0.2816,0.2711,0.2903,0.291,0.2958,0.2711,0.2812,0.2811,0.2811,0.2811,0.2811,0.2099,0.2152,0.2214,0.2307,0.24,0.2566,0.2693,0.2818,0.2844,0.2933,0.2994,0.3124,0.2867,0.3009,0.301,0.301,0.3011,0.3011,0.3011,0.21,0.2128,0.2229,0.2315,0.2454,0.2594,0.2818,0.2905,0.311,0.3087,0.313,0.2834,0.3021,0.3019,0.3017,0.3016,0.3016,0.3015,0.3015,0.2044,0.2067,0.2151,0.2274,0.2457,0.2648,0.2822,0.3013,0.3178,0.3266,0.302,0.3194,0.3178,0.331,0.3311,0.3311,0.3312,0.3312,0.3312,0.1943,0.2026,0.2062,0.2239,0.2345,0.2542,0.2848,0.2959,0.3156,0.3075,0.3308,0.3225,0.3215,0.3196,0.332,0.3319,0.3318,0.3317,0.3316,0.1824,0.1887,0.1915,0.1991,0.2184,0.2315,0.2654,0.2792,0.2903,0.2913,0.297,0.2985,0.2915,0.2914,0.288,0.2916,0.2911,0.2906,0,0.1718,0.1755,0.1749,0.1776,0.1859,0.2125,0.2208,0.2397,0.2599,0.2521,0.2883,0.2939,0.2949,0.2859,0.285,0.2802,0,0,0,0.1594,0.1627,0.1551,0.1597,0.1668,0.1881,0.2198,0.2181,0.2609,0.2572,0.2789,0.282,0.3048,0.3343,0.3272,0.326,0.3225,0,0]},{"header":{"parameterUnit":"m.s-1","parameterCategory":2,"la1":30.2992,"la2":30.254,"lo1":-89.0895,"lo2":-89.0443,"dy":0.0025,"dx":0.0025,"nx":19,"ny":19,"refTime":"2026-05-16T03:00:00:Z","depth":"4","parameterNumber":3,"parameterNumberName":"V-component_of_CURRENTS"},"data":[0,0,0,0.0094,0.0094,0.0077,0.0077,0.0054,0.0053,0,0,0,0,0,0,0,0,0,0,0,0.0099,0.0098,0.0094,0.0094,0.0077,0.0077,0.0054,0.0053,0,0,0,0,0,0,0,0,0,0,0,0.0099,0.0098,0.0098,0.0094,0.0077,0.0077,0.0054,0.0066,0,0,0,0,0,0,0,0,0,0,0.0082,0.0092,0.0098,0.0098,0.0094,0.0077,0.0077,0.0066,0.0065,0.0063,0,0.0062,0,0.006,0.0052,0.0052,0,0,0,0.0089,0.0093,0.0086,0.0098,0.0094,0.0077,0.0083,0.0066,0.0064,0.0061,0.0061,0.006,0.0059,0.0052,0.0052,0.0084,0.0085,0,0,0.009,0.0097,0.0087,0.0085,0.0092,0.0084,0.0083,0.0065,0.0066,0.0061,0.006,0.0059,0.0052,0.0052,0.0084,0.0084,0,0,0,0.0096,0.0098,0.0091,0.0086,0.0084,0.0084,0.0082,0.0067,0.0063,0.006,0.0059,0.0052,0.0052,0.0083,0.0084,0.0173,0,0,0,0.0097,0.0102,0.0092,0.0096,0.0085,0.0077,0.0085,0.0065,0.0063,0.0059,0.0052,0.0052,0.0083,0.0084,0.0169,0.0219,0,0,0,0.0099,0.0102,0.01,0.0096,0.0091,0.0077,0.0073,0.0064,0.0062,0.0052,0.0052,0.0082,0.0084,0.0166,0.0213,0.0232,0,0,0,0.0106,0.0131,0.01,0.0134,0.0091,0.0127,0.0073,0.0088,0.0087,0.0052,0.0083,0.0084,0.0165,0.0209,0.0229,0.0268,0,0,0,0.0148,0.0136,0.0159,0.0132,0.0178,0.0129,0.0179,0.0143,0.0101,0.0086,0.0087,0.017,0.0212,0.0231,0.0334,0,0,0,0,0.0181,0.0195,0.0205,0.0221,0.0227,0.0237,0.0205,0.0185,0.0169,0.0105,0.0169,0.0192,0.0202,0.0214,0.009,0.0089,0.0089,0.0089,0.0089,0.0236,0.0244,0.029,0.0302,0.0325,0.0313,0.0317,0.0281,0.0237,0.0239,0.0263,0.0339,0.0357,0.0254,0.0254,0.0255,0.0255,0.0255,0.0256,0.0298,0.0325,0.0348,0.0396,0.0406,0.0446,0.043,0.0395,0.0391,0.0339,0.0342,0.0306,0.0264,0.0263,0.0261,0.026,0.026,0.0259,0.0259,0.0327,0.0344,0.0376,0.0446,0.0517,0.0535,0.06,0.0553,0.0482,0.0496,0.0478,0.0394,0.0386,0.0489,0.049,0.049,0.049,0.0491,0.0491,0.0334,0.037,0.0432,0.0506,0.0587,0.0676,0.0698,0.0695,0.0619,0.0592,0.0522,0.0417,0.0409,0.0399,0.0496,0.0495,0.0494,0.0494,0.0494,0.0358,0.038,0.0482,0.0561,0.0733,0.0807,0.0831,0.0802,0.0787,0.0741,0.0624,0.0616,0.0582,0.0571,0.0564,0.0714,0.0715,0.0715,0,0.0374,0.0387,0.0545,0.0689,0.0837,0.0898,0.0942,0.092,0.0801,0.0796,0.0759,0.0628,0.0621,0.0582,0.0573,0.0566,0,0,0,0.0391,0.0449,0.0569,0.0717,0.0896,0.0951,0.0961,0.0938,0.0831,0.0815,0.0737,0.0732,0.0618,0.0511,0.044,0.0431,0.0409,0,0]}]]